Time,TemperatureF,DewpointF,PressureIn,WindDirection,WindDirectionDegrees,WindSpeedMPH,WindSpeedGustMPH,Humidity,HourlyPrecipIn,Conditions,Clouds,dailyrainin,SoftwareType,DateUTC
2013-05-28 00:00:00,72.5,68.8,30.05,SSW,199,0.0,0.0,88,0.00,,OVC065,0.10,VWS V14.01,2013-05-28 05:00:00,
2013-05-28 00:05:00,72.2,68.8,30.05,SSW,198,0.0,0.0,89,0.00,,BKN070,0.00,VWS V14.01,2013-05-28 05:05:00,
2013-05-28 00:10:00,71.9,68.5,30.05,SSW,198,0.0,0.0,89,0.00,,BKN070,0.00,VWS V14.01,2013-05-28 05:10:00,
2013-05-28 00:15:00,71.7,68.3,30.05,SSW,198,0.0,0.0,89,0.00,,BKN070,0.00,VWS V14.01,2013-05-28 05:15:00,
2013-05-28 00:20:00,71.5,68.4,30.05,SSW,199,0.0,0.0,90,0.00,,BKN070,0.00,VWS V14.01,2013-05-28 05:20:00,
2013-05-28 00:25:00,71.2,68.1,30.04,SSW,199,0.0,0.0,90,0.00,,BKN070,0.00,VWS V14.01,2013-05-28 05:25:00,
2013-05-28 00:30:00,71.1,68.0,30.04,SSW,198,0.0,0.0,90,0.00,,BKN070,0.00,VWS V14.01,2013-05-28 05:30:00,
2013-05-28 00:34:00,70.9,67.8,30.04,SSW,198,0.0,1.5,90,0.00,,BKN070,0.00,VWS V14.01,2013-05-28 05:34:00,
2013-05-28 00:39:00,70.8,67.7,30.04,SSW,198,0.0,1.5,90,0.00,,BKN070,0.00,VWS V14.01,2013-05-28 05:39:00,
2013-05-28 00:44:00,70.8,67.7,30.04,SSW,199,0.0,0.0,90,0.00,,BKN070,0.00,VWS V14.01,2013-05-28 05:44:00,
2013-05-28 00:49:00,70.8,67.7,30.04,SSW,198,0.0,1.5,90,0.00,,BKN070,0.00,VWS V14.01,2013-05-28 05:49:00,
2013-05-28 00:54:00,70.8,67.4,30.04,SSW,198,0.0,1.5,89,0.00,,BKN070,0.00,VWS V14.01,2013-05-28 05:54:00,
2013-05-28 00:59:00,70.8,67.7,30.04,SSW,199,0.0,0.0,90,0.00,,BKN070,0.00,VWS V14.01,2013-05-28 05:59:00,
2013-05-28 01:04:00,70.7,67.6,30.04,SSW,199,0.0,0.0,90,0.00,,CLR,0.00,VWS V14.01,2013-05-28 06:04:00,
2013-05-28 01:09:00,70.6,67.5,30.04,SSW,199,0.0,0.0,90,0.00,,CLR,0.00,VWS V14.01,2013-05-28 06:09:00,
2013-05-28 01:14:00,70.5,67.4,30.03,SSW,198,0.0,0.0,90,0.00,,CLR,0.00,VWS V14.01,2013-05-28 06:14:00,
2013-05-28 01:19:00,70.4,67.3,30.03,SSW,199,0.0,0.0,90,0.00,,CLR,0.00,VWS V14.01,2013-05-28 06:19:00,
2013-05-28 01:24:00,70.4,67.3,30.03,SSW,198,0.0,0.0,90,0.00,,CLR,0.00,VWS V14.01,2013-05-28 06:24:00,
2013-05-28 01:29:00,70.3,67.2,30.03,SSW,198,0.0,1.5,90,0.00,,CLR,0.00,VWS V14.01,2013-05-28 06:29:00,
2013-05-28 01:34:00,70.2,67.1,30.03,SSW,198,0.0,0.0,90,0.00,,CLR,0.00,VWS V14.01,2013-05-28 06:34:00,
2013-05-28 01:39:00,70.1,67.0,30.02,SSW,198,0.0,0.0,90,0.00,,CLR,0.00,VWS V14.01,2013-05-28 06:39:00,
2013-05-28 01:44:00,70.0,66.9,30.03,SSW,198,0.0,1.5,90,0.00,,CLR,0.00,VWS V14.01,2013-05-28 06:44:00,
2013-05-28 01:49:00,69.9,66.8,30.03,SSW,198,0.0,0.0,90,0.00,,CLR,0.00,VWS V14.01,2013-05-28 06:49:00,
2013-05-28 01:54:00,69.8,66.7,30.03,SSW,199,0.0,0.0,90,0.00,,CLR,0.00,VWS V14.01,2013-05-28 06:54:00,
2013-05-28 01:59:00,69.7,66.6,30.03,SSW,198,0.0,0.0,90,0.00,,CLR,0.00,VWS V14.01,2013-05-28 06:59:00,
2013-05-28 02:04:00,69.6,66.5,30.02,SSW,198,0.0,0.0,90,0.00,,CLR,0.00,VWS V14.01,2013-05-28 07:04:00,
2013-05-28 02:09:00,69.5,66.4,30.02,SSW,199,0.0,0.0,90,0.00,,CLR,0.00,VWS V14.01,2013-05-28 07:09:00,
2013-05-28 02:14:00,69.4,66.3,30.02,SSW,198,0.0,0.0,90,0.00,,CLR,0.00,VWS V14.01,2013-05-28 07:14:00,
2013-05-28 02:19:00,69.3,66.6,30.02,SSW,198,0.0,0.0,91,0.00,,CLR,0.00,VWS V14.01,2013-05-28 07:19:00,
2013-05-28 02:24:00,69.2,66.5,30.01,SSW,199,0.0,0.0,91,0.00,,CLR,0.00,VWS V14.01,2013-05-28 07:24:00,
2013-05-28 02:29:00,69.0,66.3,30.01,SSW,199,0.0,0.0,91,0.00,,CLR,0.00,VWS V14.01,2013-05-28 07:29:00,
2013-05-28 02:34:00,68.9,66.2,30.01,SSW,198,0.0,0.0,91,0.00,,CLR,0.00,VWS V14.01,2013-05-28 07:34:00,
2013-05-28 02:39:00,68.9,66.2,30.01,SSW,198,0.0,0.0,91,0.00,,CLR,0.00,VWS V14.01,2013-05-28 07:39:00,
2013-05-28 02:44:00,68.7,66.0,30.01,SSW,198,0.0,0.0,91,0.00,,CLR,0.00,VWS V14.01,2013-05-28 07:44:00,
2013-05-28 02:49:00,68.7,66.0,30.01,SSW,198,0.0,0.0,91,0.00,,CLR,0.00,VWS V14.01,2013-05-28 07:49:00,
2013-05-28 02:54:00,68.6,65.9,30.01,SSW,198,0.0,0.0,91,0.00,,CLR,0.00,VWS V14.01,2013-05-28 07:54:00,
2013-05-28 02:59:00,68.5,65.8,30.01,SSW,198,0.0,0.0,91,0.00,,CLR,0.00,VWS V14.01,2013-05-28 07:59:00,
2013-05-28 03:04:00,68.4,65.7,30.01,SSW,199,0.0,0.0,91,0.00,,CLR,0.00,VWS V14.01,2013-05-28 08:04:00,
2013-05-28 03:09:00,68.3,65.6,30.01,SSW,199,0.0,0.0,91,0.00,,CLR,0.00,VWS V14.01,2013-05-28 08:09:00,
2013-05-28 03:14:00,68.3,65.6,30.00,SSW,198,0.0,0.0,91,0.00,,CLR,0.00,VWS V14.01,2013-05-28 08:14:00,
2013-05-28 03:19:00,68.2,65.5,30.00,SSW,198,0.0,0.0,91,0.00,,CLR,0.00,VWS V14.01,2013-05-28 08:19:00,
2013-05-28 03:24:00,68.1,65.4,30.00,SSW,198,0.0,0.0,91,0.00,,CLR,0.00,VWS V14.01,2013-05-28 08:24:00,
2013-05-28 03:29:00,68.2,65.5,29.99,SSW,198,0.0,0.0,91,0.00,,CLR,0.00,VWS V14.01,2013-05-28 08:29:00,
2013-05-28 03:34:00,68.2,65.5,30.00,SSW,198,1.5,1.5,91,0.00,,CLR,0.00,VWS V14.01,2013-05-28 08:34:00,
2013-05-28 03:39:00,68.4,65.7,30.00,SSW,199,0.0,0.0,91,0.00,,CLR,0.00,VWS V14.01,2013-05-28 08:39:00,
2013-05-28 03:44:00,68.4,65.7,30.00,SSW,199,0.0,0.0,91,0.00,,CLR,0.00,VWS V14.01,2013-05-28 08:44:00,
2013-05-28 03:49:00,68.3,65.6,30.00,SSW,199,0.0,0.0,91,0.00,,CLR,0.00,VWS V14.01,2013-05-28 08:49:00,
2013-05-28 03:54:00,68.3,65.6,30.00,SSW,198,0.0,0.0,91,0.00,,CLR,0.00,VWS V14.01,2013-05-28 08:54:00,
2013-05-28 03:59:00,68.3,65.6,30.00,SSW,198,0.0,0.0,91,0.00,,CLR,0.00,VWS V14.01,2013-05-28 08:59:00,
2013-05-28 04:04:00,68.2,65.5,30.00,SSW,199,0.0,0.0,91,0.00,,CLR,0.00,VWS V14.01,2013-05-28 09:04:00,
2013-05-28 04:09:00,68.2,65.8,29.99,SSW,198,0.0,0.0,92,0.00,,CLR,0.00,VWS V14.01,2013-05-28 09:09:00,
2013-05-28 04:14:00,68.1,65.7,29.99,SSW,199,0.0,0.0,92,0.00,,CLR,0.00,VWS V14.01,2013-05-28 09:14:00,
2013-05-28 04:19:00,68.0,65.6,29.99,SSW,198,0.0,0.0,92,0.00,,CLR,0.00,VWS V14.01,2013-05-28 09:19:00,
2013-05-28 04:24:00,68.0,65.6,30.00,SSW,198,0.0,0.0,92,0.00,,CLR,0.00,VWS V14.01,2013-05-28 09:24:00,
2013-05-28 04:29:00,68.0,65.6,30.00,SSW,198,0.0,0.0,92,0.00,,CLR,0.00,VWS V14.01,2013-05-28 09:29:00,
2013-05-28 04:34:00,68.0,65.6,29.99,SSW,198,0.0,0.0,92,0.00,,CLR,0.00,VWS V14.01,2013-05-28 09:34:00,
2013-05-28 04:39:00,68.0,65.6,29.99,SSW,198,0.0,0.0,92,0.00,,CLR,0.00,VWS V14.01,2013-05-28 09:39:00,
2013-05-28 04:44:00,68.0,65.6,30.00,SSW,198,0.0,0.0,92,0.00,,CLR,0.00,VWS V14.01,2013-05-28 09:44:00,
2013-05-28 04:49:00,67.9,65.5,30.00,SSW,198,0.0,0.0,92,0.00,,CLR,0.00,VWS V14.01,2013-05-28 09:49:00,
2013-05-28 04:54:00,67.9,65.5,29.99,SSW,199,0.0,0.0,92,0.00,,CLR,0.00,VWS V14.01,2013-05-28 09:54:00,
2013-05-28 04:59:00,67.9,65.5,29.99,SSW,198,0.0,0.0,92,0.00,,CLR,0.00,VWS V14.01,2013-05-28 09:59:00,
2013-05-28 05:04:00,67.8,65.4,29.99,SSW,198,0.0,0.0,92,0.00,,CLR,0.00,VWS V14.01,2013-05-28 10:04:00,
2013-05-28 05:09:00,67.7,65.3,29.99,SSW,199,0.0,0.0,92,0.00,,CLR,0.00,VWS V14.01,2013-05-28 10:09:00,
2013-05-28 05:14:00,67.8,65.4,29.99,SSW,199,0.0,0.0,92,0.00,,CLR,0.00,VWS V14.01,2013-05-28 10:14:00,
2013-05-28 05:19:00,67.8,65.4,30.00,SSW,199,0.0,0.0,92,0.00,,CLR,0.00,VWS V14.01,2013-05-28 10:19:00,
2013-05-28 05:24:00,67.8,65.4,30.00,SSW,199,0.0,0.0,92,0.00,,CLR,0.00,VWS V14.01,2013-05-28 10:24:00,
2013-05-28 05:29:00,67.7,65.3,29.99,SSW,198,1.5,1.5,92,0.00,,CLR,0.00,VWS V14.01,2013-05-28 10:29:00,
2013-05-28 05:34:00,67.7,65.3,30.00,SSW,198,0.0,0.0,92,0.00,,CLR,0.00,VWS V14.01,2013-05-28 10:34:00,
2013-05-28 05:39:00,67.7,65.3,30.00,SSW,198,0.0,0.0,92,0.00,,CLR,0.00,VWS V14.01,2013-05-28 10:39:00,
2013-05-28 05:44:00,67.7,65.3,30.00,SSW,199,0.0,0.0,92,0.00,,CLR,0.00,VWS V14.01,2013-05-28 10:44:00,
2013-05-28 05:49:00,67.7,65.3,30.00,SSW,198,0.0,0.0,92,0.00,,CLR,0.00,VWS V14.01,2013-05-28 10:49:00,
2013-05-28 05:54:00,67.7,65.3,30.00,SSW,198,0.0,1.5,92,0.00,,CLR,0.00,VWS V14.01,2013-05-28 10:54:00,
2013-05-28 05:59:00,67.8,65.4,30.00,SSW,198,0.0,0.0,92,0.00,,CLR,0.00,VWS V14.01,2013-05-28 10:59:00,
2013-05-28 06:04:00,67.7,65.3,30.00,SSW,198,0.0,0.0,92,0.00,,CLR,0.00,VWS V14.01,2013-05-28 11:04:00,
2013-05-28 06:09:00,67.8,65.4,30.00,SSW,198,0.0,0.0,92,0.00,,CLR,0.00,VWS V14.01,2013-05-28 11:09:00,
2013-05-28 06:14:00,67.8,65.4,30.00,SSW,199,0.0,0.0,92,0.00,,CLR,0.00,VWS V14.01,2013-05-28 11:14:00,
2013-05-28 06:19:00,67.8,65.4,30.00,SSW,198,0.0,0.0,92,0.00,,CLR,0.00,VWS V14.01,2013-05-28 11:19:00,
2013-05-28 06:24:00,67.9,65.5,30.00,SSW,198,0.0,0.0,92,0.00,,CLR,0.00,VWS V14.01,2013-05-28 11:24:00,
2013-05-28 06:29:00,67.9,65.5,30.00,SSW,198,0.0,1.5,92,0.00,,CLR,0.00,VWS V14.01,2013-05-28 11:29:00,
2013-05-28 06:34:00,68.0,65.6,30.00,SSW,200,0.0,0.0,92,0.01,,CLR,0.01,VWS V14.01,2013-05-28 11:34:00,
2013-05-28 06:39:00,68.3,65.9,30.00,SSW,200,1.5,1.5,92,0.01,,CLR,0.01,VWS V14.01,2013-05-28 11:39:00,
2013-05-28 06:44:00,68.4,66.0,30.00,SSW,201,0.0,0.0,92,0.01,,CLR,0.01,VWS V14.01,2013-05-28 11:44:00,
2013-05-28 06:49:00,68.6,66.2,30.00,SSW,200,0.0,1.5,92,0.01,,CLR,0.01,VWS V14.01,2013-05-28 11:49:00,
2013-05-28 06:54:00,68.7,66.3,30.00,SSW,200,0.0,0.0,92,0.01,,CLR,0.01,VWS V14.01,2013-05-28 11:54:00,
2013-05-28 06:59:00,68.9,66.5,30.00,SSW,200,0.0,0.0,92,0.01,,CLR,0.01,VWS V14.01,2013-05-28 11:59:00,
2013-05-28 07:04:00,69.1,66.7,30.00,SSW,200,0.0,1.5,92,0.01,,FEW029,0.01,VWS V14.01,2013-05-28 12:04:00,
2013-05-28 07:09:00,69.4,67.0,30.00,SSW,201,0.0,0.0,92,0.01,,FEW029,0.01,VWS V14.01,2013-05-28 12:09:00,
2013-05-28 07:14:00,69.5,67.1,30.00,SSW,200,0.0,0.0,92,0.01,,FEW029,0.01,VWS V14.01,2013-05-28 12:14:00,
2013-05-28 07:19:00,69.7,67.3,30.00,SSW,201,0.0,1.5,92,0.01,,FEW029,0.01,VWS V14.01,2013-05-28 12:19:00,
2013-05-28 07:24:00,70.0,67.6,30.00,SSW,201,0.0,1.5,92,0.01,,FEW029,0.01,VWS V14.01,2013-05-28 12:24:00,
2013-05-28 07:29:00,70.3,67.9,30.00,SSW,201,3.0,3.0,92,0.01,,FEW029,0.01,VWS V14.01,2013-05-28 12:29:00,
2013-05-28 07:34:00,70.7,68.3,30.00,SSE,157,1.5,3.0,92,0.00,,FEW029,0.01,VWS V14.01,2013-05-28 12:34:00,
2013-05-28 07:39:00,71.2,68.8,30.00,SSW,203,3.0,3.0,92,0.00,,FEW029,0.01,VWS V14.01,2013-05-28 12:39:00,
2013-05-28 07:44:00,71.7,69.3,30.00,South,182,0.0,3.0,92,0.00,,FEW029,0.01,VWS V14.01,2013-05-28 12:44:00,
2013-05-28 07:49:00,72.3,69.5,30.00,South,182,1.5,3.0,91,0.00,,FEW029,0.01,VWS V14.01,2013-05-28 12:49:00,
2013-05-28 07:54:00,72.9,70.1,30.00,South,182,0.0,3.0,91,0.00,,FEW029,0.01,VWS V14.01,2013-05-28 12:54:00,
2013-05-28 07:59:00,73.3,70.2,30.00,South,182,0.0,7.5,90,0.00,,FEW029,0.01,VWS V14.01,2013-05-28 12:59:00,
2013-05-28 08:04:00,73.8,70.7,30.00,South,171,0.0,4.5,90,0.00,,CLR,0.01,VWS V14.01,2013-05-28 13:04:00,
2013-05-28 08:09:00,74.2,70.8,30.00,SE,134,1.5,7.5,89,0.00,,CLR,0.01,VWS V14.01,2013-05-28 13:09:00,
2013-05-28 08:14:00,74.5,70.4,30.00,SSW,192,3.0,7.5,87,0.00,,CLR,0.01,VWS V14.01,2013-05-28 13:14:00,
2013-05-28 08:19:00,74.8,70.7,30.00,SE,137,0.0,9.0,87,0.00,,CLR,0.01,VWS V14.01,2013-05-28 13:19:00,
2013-05-28 08:24:00,75.2,71.1,30.00,South,186,4.5,6.0,87,0.00,,CLR,0.01,VWS V14.01,2013-05-28 13:24:00,
2013-05-28 08:29:00,75.7,71.2,30.00,South,182,3.0,12.0,86,0.00,,CLR,0.01,VWS V14.01,2013-05-28 13:29:00,
2013-05-28 08:34:00,76.1,71.3,30.00,South,174,4.5,10.5,85,0.00,,CLR,0.01,VWS V14.01,2013-05-28 13:34:00,
2013-05-28 08:39:00,76.5,71.3,30.00,SSE,152,6.0,9.0,84,0.00,,CLR,0.01,VWS V14.01,2013-05-28 13:39:00,
2013-05-28 08:44:00,76.8,71.6,30.00,SSW,200,4.5,10.5,84,0.00,,CLR,0.01,VWS V14.01,2013-05-28 13:44:00,
2013-05-28 08:49:00,77.3,72.1,30.00,SSE,156,4.5,10.5,84,0.00,,CLR,0.01,VWS V14.01,2013-05-28 13:49:00,
2013-05-28 08:54:00,77.6,72.0,30.00,SSE,148,3.0,10.5,83,0.00,,CLR,0.01,VWS V14.01,2013-05-28 13:54:00,
2013-05-28 08:59:00,77.8,71.9,30.00,SSW,201,3.0,7.5,82,0.00,,CLR,0.01,VWS V14.01,2013-05-28 13:59:00,
2013-05-28 09:04:00,78.1,72.2,30.00,SSE,165,6.0,15.0,82,0.00,,SCT019,0.01,VWS V14.01,2013-05-28 14:04:00,
2013-05-28 09:09:00,78.4,72.4,30.00,South,187,6.0,10.5,82,0.00,,SCT019,0.01,VWS V14.01,2013-05-28 14:09:00,
2013-05-28 09:14:00,78.3,72.0,30.00,SSE,148,6.0,15.0,81,0.00,,SCT019,0.01,VWS V14.01,2013-05-28 14:14:00,
2013-05-28 09:19:00,78.6,72.7,30.01,SSW,198,7.5,7.5,82,0.00,,SCT019,0.01,VWS V14.01,2013-05-28 14:19:00,
2013-05-28 09:24:00,78.5,71.8,30.00,South,185,6.0,13.5,80,0.00,,SCT019,0.01,VWS V14.01,2013-05-28 14:24:00,
2013-05-28 09:29:00,78.4,72.1,30.00,SSW,197,4.5,12.0,81,0.00,,SCT019,0.01,VWS V14.01,2013-05-28 14:29:00,
2013-05-28 09:34:00,78.4,72.4,30.01,SE,143,3.0,16.5,82,0.00,,SCT019,0.01,VWS V14.01,2013-05-28 14:34:00,
2013-05-28 09:39:00,78.6,72.3,30.01,South,173,1.5,9.0,81,0.00,,SCT019,0.01,VWS V14.01,2013-05-28 14:39:00,
2013-05-28 09:44:00,78.7,72.4,30.01,SSE,166,4.5,10.5,81,0.00,,BKN030,0.01,VWS V14.01,2013-05-28 14:44:00,
2013-05-28 09:49:00,78.5,71.8,30.00,South,184,3.0,9.0,80,0.00,,BKN030,0.01,VWS V14.01,2013-05-28 14:49:00,
2013-05-28 09:54:00,78.8,72.8,30.00,SSE,153,7.5,9.0,82,0.00,,BKN030,0.01,VWS V14.01,2013-05-28 14:54:00,
2013-05-28 09:59:00,79.6,72.9,30.00,South,191,6.0,10.5,80,0.00,,BKN030,0.01,VWS V14.01,2013-05-28 14:59:00,
2013-05-28 10:04:00,80.2,73.1,30.00,South,187,7.5,10.5,79,0.00,,BKN039,0.01,VWS V14.01,2013-05-28 15:04:00,
2013-05-28 10:09:00,80.3,72.1,30.01,SSE,150,4.5,12.0,76,0.00,,BKN039,0.01,VWS V14.01,2013-05-28 15:09:00,
2013-05-28 10:14:00,80.3,72.8,30.00,South,180,7.5,9.0,78,0.00,,BKN039,0.01,VWS V14.01,2013-05-28 15:14:00,
2013-05-28 10:19:00,80.7,72.4,30.00,South,190,13.5,13.5,76,0.00,,BKN039,0.01,VWS V14.01,2013-05-28 15:19:00,
2013-05-28 10:24:00,80.6,71.9,30.00,South,180,4.5,7.5,75,0.00,,BKN039,0.01,VWS V14.01,2013-05-28 15:24:00,
2013-05-28 10:29:00,80.2,71.9,30.01,South,180,6.0,7.5,76,0.00,,BKN039,0.01,VWS V14.01,2013-05-28 15:29:00,
2013-05-28 10:34:00,80.1,71.9,30.01,SSW,202,9.0,10.5,76,0.00,,BKN039,0.01,VWS V14.01,2013-05-28 15:34:00,
2013-05-28 10:39:00,80.4,72.2,30.00,SSE,168,4.5,12.0,76,0.00,,BKN039,0.01,VWS V14.01,2013-05-28 15:39:00,
2013-05-28 10:44:00,80.7,72.0,30.00,SE,138,4.5,10.5,75,0.00,,BKN039,0.01,VWS V14.01,2013-05-28 15:44:00,
2013-05-28 10:49:00,80.8,71.7,30.00,South,182,4.5,12.0,74,0.00,,BKN039,0.01,VWS V14.01,2013-05-28 15:49:00,
2013-05-28 10:54:00,80.6,71.9,30.01,South,176,6.0,10.5,75,0.00,,BKN039,0.01,VWS V14.01,2013-05-28 15:54:00,
2013-05-28 10:59:00,80.4,71.8,30.01,South,182,3.0,13.5,75,0.00,,BKN039,0.01,VWS V14.01,2013-05-28 15:59:00,
2013-05-28 11:04:00,80.1,72.2,30.01,South,178,4.5,7.5,77,0.00,,BKN048,0.01,VWS V14.01,2013-05-28 16:04:00,
2013-05-28 11:09:00,80.0,71.8,30.01,SE,144,4.5,10.5,76,0.00,,BKN048,0.01,VWS V14.01,2013-05-28 16:09:00,
2013-05-28 11:14:00,80.1,73.0,30.01,South,180,0.0,1.5,79,0.00,,BKN048,0.01,VWS V14.01,2013-05-28 16:14:00,
2013-05-28 11:19:00,80.8,72.9,30.01,SSE,157,7.5,7.5,77,0.00,,BKN048,0.01,VWS V14.01,2013-05-28 16:19:00,
2013-05-28 11:24:00,81.7,73.0,30.01,South,171,1.5,4.5,75,0.00,,BKN048,0.01,VWS V14.01,2013-05-28 16:24:00,
2013-05-28 11:29:00,82.2,71.9,30.01,South,191,1.5,10.5,71,0.00,,BKN048,0.01,VWS V14.01,2013-05-28 16:29:00,
2013-05-28 11:34:00,81.8,71.9,30.01,SSW,198,7.5,10.5,72,0.00,,BKN048,0.01,VWS V14.01,2013-05-28 16:34:00,
2013-05-28 11:39:00,80.4,72.5,30.01,WSW,251,0.0,7.5,77,0.01,,BKN048,0.02,VWS V14.01,2013-05-28 16:39:00,
2013-05-28 11:44:00,79.4,73.4,30.01,SW,223,1.5,7.5,82,0.01,,BKN048,0.02,VWS V14.01,2013-05-28 16:44:00,
2013-05-28 11:49:00,79.1,74.2,30.01,SW,232,1.5,4.5,85,0.01,,BKN048,0.02,VWS V14.01,2013-05-28 16:49:00,
2013-05-28 11:54:00,79.3,74.1,30.01,SSW,207,0.0,1.5,84,0.01,,BKN048,0.02,VWS V14.01,2013-05-28 16:54:00,
2013-05-28 11:59:00,79.6,74.0,30.01,SW,215,0.0,1.5,83,0.01,,BKN048,0.02,VWS V14.01,2013-05-28 16:59:00,
2013-05-28 12:04:00,79.7,73.7,30.02,SSW,198,1.5,7.5,82,0.01,,BKN044,0.02,VWS V14.01,2013-05-28 17:04:00,
2013-05-28 12:09:00,79.8,73.1,30.01,SSW,194,4.5,6.0,80,0.01,,BKN044,0.02,VWS V14.01,2013-05-28 17:09:00,
2013-05-28 12:14:00,79.9,73.9,30.02,South,184,0.0,3.0,82,0.01,,BKN044,0.02,VWS V14.01,2013-05-28 17:14:00,
2013-05-28 12:19:00,80.0,72.9,30.02,South,190,4.5,7.5,79,0.01,,BKN044,0.02,VWS V14.01,2013-05-28 17:19:00,
2013-05-28 12:24:00,80.2,73.5,30.01,SSW,197,0.0,3.0,80,0.01,,BKN044,0.02,VWS V14.01,2013-05-28 17:24:00,
2013-05-28 12:31:00,81.2,74.1,30.01,SSW,202,4.5,7.5,79,0.01,,BKN044,0.02,VWS V14.01,2013-05-28 17:31:00,
2013-05-28 12:36:00,81.7,73.8,30.01,SSW,197,3.0,4.5,77,0.01,,BKN044,0.02,VWS V14.01,2013-05-28 17:36:00,
2013-05-28 12:41:00,81.6,72.5,30.01,SE,144,4.5,7.5,74,0.00,,BKN044,0.02,VWS V14.01,2013-05-28 17:41:00,
2013-05-28 12:46:00,81.4,73.1,30.01,SSE,167,1.5,3.0,76,0.00,,BKN044,0.02,VWS V14.01,2013-05-28 17:46:00,
2013-05-28 12:51:00,81.9,73.2,30.01,South,188,1.5,7.5,75,0.00,,BKN044,0.02,VWS V14.01,2013-05-28 17:51:00,
2013-05-28 12:56:00,82.6,73.9,30.01,South,177,3.0,4.5,75,0.00,,BKN044,0.02,VWS V14.01,2013-05-28 17:56:00,
2013-05-28 13:01:00,82.9,73.8,30.01,South,175,0.0,3.0,74,0.00,,BKN075,0.02,VWS V14.01,2013-05-28 18:01:00,
2013-05-28 13:06:00,83.3,73.3,30.01,South,171,10.5,10.5,72,0.00,,BKN075,0.02,VWS V14.01,2013-05-28 18:06:00,
2013-05-28 13:11:00,83.9,73.5,30.01,SE,126,6.0,9.0,71,0.00,,BKN075,0.02,VWS V14.01,2013-05-28 18:11:00,
2013-05-28 13:16:00,83.7,74.1,30.00,SE,143,6.0,10.5,73,0.00,,BKN075,0.02,VWS V14.01,2013-05-28 18:16:00,
2013-05-28 13:21:00,84.1,74.1,30.00,South,180,6.0,6.0,72,0.00,,BKN075,0.02,VWS V14.01,2013-05-28 18:21:00,
2013-05-28 13:26:00,84.6,74.2,30.00,SW,222,3.0,10.5,71,0.00,,BKN075,0.02,VWS V14.01,2013-05-28 18:26:00,
2013-05-28 13:31:00,84.8,73.5,30.00,SSE,148,3.0,7.5,69,0.00,,BKN075,0.02,VWS V14.01,2013-05-28 18:31:00,
2013-05-28 13:36:00,84.5,72.3,30.00,South,186,6.0,13.5,67,0.00,,BKN075,0.02,VWS V14.01,2013-05-28 18:36:00,
2013-05-28 13:41:00,83.8,72.6,30.00,SE,141,4.5,12.0,69,0.00,,BKN075,0.02,VWS V14.01,2013-05-28 18:41:00,
2013-05-28 13:46:00,84.0,73.2,29.99,SSW,211,7.5,9.0,70,0.00,,BKN075,0.02,VWS V14.01,2013-05-28 18:46:00,
2013-05-28 13:51:00,84.4,72.2,29.99,SE,128,7.5,13.5,67,0.00,,BKN075,0.02,VWS V14.01,2013-05-28 18:51:00,
2013-05-28 13:56:00,84.7,72.1,29.99,SSW,194,10.5,12.0,66,0.01,,BKN075,0.03,VWS V14.01,2013-05-28 18:56:00,
2013-05-28 14:01:00,84.4,72.2,29.99,SSE,159,6.0,7.5,67,0.01,,BKN075,0.03,VWS V14.01,2013-05-28 19:01:00,
2013-05-28 14:06:00,83.5,71.4,29.99,SE,134,3.0,12.0,67,0.01,,BKN075,0.03,VWS V14.01,2013-05-28 19:06:00,
2013-05-28 14:11:00,83.7,72.5,29.99,ESE,123,1.5,13.5,69,0.01,,BKN075,0.03,VWS V14.01,2013-05-28 19:11:00,
2013-05-28 14:16:00,83.4,72.6,29.98,South,173,6.0,13.5,70,0.01,,BKN075,0.03,VWS V14.01,2013-05-28 19:16:00,
2013-05-28 14:21:00,84.2,72.5,29.98,South,184,1.5,12.0,68,0.01,,BKN075,0.03,VWS V14.01,2013-05-28 19:21:00,
2013-05-28 14:26:00,83.8,71.7,29.98,SSW,193,12.0,12.0,67,0.01,,BKN075,0.03,VWS V14.01,2013-05-28 19:26:00,
2013-05-28 14:31:00,83.8,72.6,29.98,ESE,119,4.5,12.0,69,0.01,,BKN075,0.03,VWS V14.01,2013-05-28 19:31:00,
2013-05-28 14:36:00,84.4,72.2,29.98,SE,136,6.0,9.0,67,0.01,,BKN075,0.03,VWS V14.01,2013-05-28 19:36:00,
2013-05-28 14:41:00,83.9,71.8,29.98,SSE,166,10.5,10.5,67,0.01,,BKN075,0.03,VWS V14.01,2013-05-28 19:41:00,
2013-05-28 14:46:00,83.3,71.2,29.98,ESE,123,4.5,12.0,67,0.01,,BKN075,0.03,VWS V14.01,2013-05-28 19:46:00,
2013-05-28 14:51:00,83.5,71.8,29.98,SE,140,4.5,13.5,68,0.01,,BKN075,0.03,VWS V14.01,2013-05-28 19:51:00,
2013-05-28 14:56:00,83.2,71.6,29.98,SSE,159,1.5,10.5,68,0.00,,BKN075,0.03,VWS V14.01,2013-05-28 19:56:00,
2013-05-28 15:01:00,83.1,71.4,29.98,SSW,209,4.5,13.5,68,0.00,,BKN065,0.03,VWS V14.01,2013-05-28 20:01:00,
2013-05-28 15:06:00,83.4,71.7,29.98,SSW,212,10.5,13.5,68,0.00,,BKN065,0.03,VWS V14.01,2013-05-28 20:06:00,
2013-05-28 15:11:00,83.7,72.0,29.98,South,173,9.0,12.0,68,0.00,,BKN065,0.03,VWS V14.01,2013-05-28 20:11:00,
2013-05-28 15:16:00,84.1,72.8,29.98,SE,146,7.5,15.0,69,0.00,,BKN065,0.03,VWS V14.01,2013-05-28 20:16:00,
2013-05-28 15:21:00,84.6,72.9,29.98,SSE,147,6.0,21.0,68,0.00,,BKN065,0.03,VWS V14.01,2013-05-28 20:21:00,
2013-05-28 15:26:00,84.4,71.4,29.98,SSW,200,6.0,12.0,65,0.00,,BKN065,0.03,VWS V14.01,2013-05-28 20:26:00,
2013-05-28 15:31:00,84.0,71.9,29.97,South,178,4.5,7.5,67,0.00,,BKN065,0.03,VWS V14.01,2013-05-28 20:31:00,
2013-05-28 15:36:00,83.4,71.7,29.97,SSE,163,1.5,4.5,68,0.00,,BKN065,0.03,VWS V14.01,2013-05-28 20:36:00,
2013-05-28 15:41:00,83.2,72.0,29.97,South,180,7.5,12.0,69,0.00,,BKN065,0.03,VWS V14.01,2013-05-28 20:41:00,
2013-05-28 15:46:00,84.0,71.4,29.97,SSE,161,3.0,10.5,66,0.00,,BKN065,0.03,VWS V14.01,2013-05-28 20:46:00,
2013-05-28 15:51:00,84.7,72.5,29.97,South,173,4.5,10.5,67,0.00,,BKN065,0.03,VWS V14.01,2013-05-28 20:51:00,
2013-05-28 15:56:00,85.0,71.0,29.97,ESE,121,7.5,15.0,63,0.00,,BKN065,0.03,VWS V14.01,2013-05-28 20:56:00,
2013-05-28 16:01:00,85.4,71.4,29.97,SSW,198,3.0,12.0,63,0.00,,OVC085,0.03,VWS V14.01,2013-05-28 21:01:00,
2013-05-28 16:06:00,85.8,71.3,29.97,SSE,156,7.5,12.0,62,0.00,,OVC085,0.03,VWS V14.01,2013-05-28 21:06:00,
2013-05-28 16:11:00,85.9,71.4,29.97,South,177,6.0,9.0,62,0.00,,OVC085,0.03,VWS V14.01,2013-05-28 21:11:00,
2013-05-28 16:16:00,86.1,71.6,29.97,SE,144,3.0,9.0,62,0.00,,OVC085,0.03,VWS V14.01,2013-05-28 21:16:00,
2013-05-28 16:21:00,86.1,71.1,29.96,SE,142,6.0,13.5,61,0.00,,OVC085,0.03,VWS V14.01,2013-05-28 21:21:00,
2013-05-28 16:26:00,86.4,71.8,29.96,SE,138,3.0,10.5,62,0.00,,OVC085,0.03,VWS V14.01,2013-05-28 21:26:00,
2013-05-28 16:31:00,86.5,71.9,29.96,ESE,123,3.0,12.0,62,0.00,,OVC085,0.03,VWS V14.01,2013-05-28 21:31:00,
2013-05-28 16:36:00,86.1,71.6,29.96,SW,215,9.0,9.0,62,0.00,,OVC085,0.03,VWS V14.01,2013-05-28 21:36:00,
2013-05-28 16:41:00,86.0,70.5,29.96,SSW,196,4.5,13.5,60,0.00,,OVC085,0.03,VWS V14.01,2013-05-28 21:41:00,
2013-05-28 16:46:00,85.2,69.8,29.96,SSW,202,12.0,22.5,60,0.00,,OVC085,0.03,VWS V14.01,2013-05-28 21:46:00,
2013-05-28 16:51:00,84.6,70.2,29.96,South,170,3.0,13.5,62,0.00,,OVC085,0.03,VWS V14.01,2013-05-28 21:51:00,
2013-05-28 16:56:00,85.0,70.1,29.96,SE,128,10.5,13.5,61,0.00,,OVC085,0.03,VWS V14.01,2013-05-28 21:56:00,
2013-05-28 17:01:00,85.5,70.5,29.95,SSW,198,7.5,9.0,61,0.00,,BKN070,0.03,VWS V14.01,2013-05-28 22:01:00,
2013-05-28 17:06:00,85.6,70.1,29.95,SSW,196,6.0,10.5,60,0.00,,BKN070,0.03,VWS V14.01,2013-05-28 22:06:00,
2013-05-28 17:11:00,85.5,71.0,29.95,South,188,1.5,7.5,62,0.00,,BKN070,0.03,VWS V14.01,2013-05-28 22:11:00,
2013-05-28 17:16:00,85.7,71.2,29.96,SE,142,3.0,9.0,62,0.00,,BKN070,0.03,VWS V14.01,2013-05-28 22:16:00,
2013-05-28 17:21:00,85.4,69.9,29.95,South,169,3.0,10.5,60,0.00,,BKN070,0.03,VWS V14.01,2013-05-28 22:21:00,
2013-05-28 17:26:00,85.3,69.8,29.95,South,171,4.5,10.5,60,0.00,,BKN070,0.03,VWS V14.01,2013-05-28 22:26:00,
2013-05-28 17:31:00,85.4,70.4,29.95,SSW,203,1.5,7.5,61,0.00,,BKN070,0.03,VWS V14.01,2013-05-28 22:31:00,
2013-05-28 17:36:00,85.4,69.9,29.95,SSW,211,3.0,10.5,60,0.00,,BKN070,0.03,VWS V14.01,2013-05-28 22:36:00,
2013-05-28 17:41:00,85.0,70.1,29.95,SE,125,4.5,15.0,61,0.00,,BKN070,0.03,VWS V14.01,2013-05-28 22:41:00,
2013-05-28 17:46:00,84.8,69.9,29.95,South,190,6.0,10.5,61,0.00,,BKN070,0.03,VWS V14.01,2013-05-28 22:46:00,
2013-05-28 17:51:00,84.8,69.9,29.95,SSE,157,6.0,9.0,61,0.00,,BKN070,0.03,VWS V14.01,2013-05-28 22:51:00,
2013-05-28 17:56:00,84.8,69.4,29.95,South,178,7.5,9.0,60,0.00,,BKN070,0.03,VWS V14.01,2013-05-28 22:56:00,
2013-05-28 18:01:00,84.6,69.7,29.95,SSE,155,3.0,12.0,61,0.00,,BKN055,0.03,VWS V14.01,2013-05-28 23:01:00,
2013-05-28 18:06:00,84.3,69.4,29.95,SSE,154,1.5,12.0,61,0.00,,BKN055,0.03,VWS V14.01,2013-05-28 23:06:00,
2013-05-28 18:11:00,84.3,68.9,29.95,SSE,156,4.5,10.5,60,0.00,,BKN055,0.03,VWS V14.01,2013-05-28 23:11:00,
2013-05-28 18:16:00,84.1,68.7,29.95,SE,136,4.5,12.0,60,0.00,,BKN055,0.03,VWS V14.01,2013-05-28 23:16:00,
2013-05-28 18:21:00,84.0,68.6,29.95,South,185,7.5,12.0,60,0.00,,BKN055,0.03,VWS V14.01,2013-05-28 23:21:00,
2013-05-28 18:26:00,83.9,68.5,29.95,South,179,1.5,7.5,60,0.00,,BKN055,0.03,VWS V14.01,2013-05-28 23:26:00,
2013-05-28 18:31:00,83.9,68.1,29.95,SE,140,10.5,10.5,59,0.00,,BKN055,0.03,VWS V14.01,2013-05-28 23:31:00,
2013-05-28 18:36:00,83.8,68.4,29.95,SE,140,3.0,7.5,60,0.00,,BKN055,0.03,VWS V14.01,2013-05-28 23:36:00,
2013-05-28 18:41:00,83.6,68.3,29.95,SE,126,9.0,12.0,60,0.00,,BKN055,0.03,VWS V14.01,2013-05-28 23:41:00,
2013-05-28 18:46:00,83.6,68.7,29.95,SE,137,1.5,6.0,61,0.00,,BKN055,0.03,VWS V14.01,2013-05-28 23:46:00,
2013-05-28 18:51:00,83.4,68.6,29.95,South,170,7.5,15.0,61,0.00,,BKN055,0.03,VWS V14.01,2013-05-28 23:51:00,
2013-05-28 18:56:00,83.2,68.8,29.95,SE,124,4.5,7.5,62,0.00,,BKN055,0.03,VWS V14.01,2013-05-28 23:56:00,
2013-05-28 19:01:00,82.9,68.1,29.95,SSE,160,4.5,7.5,61,0.00,,OVC060,0.03,VWS V14.01,2013-05-29 00:01:00,
2013-05-28 19:06:00,82.6,67.3,29.95,SE,133,3.0,9.0,60,0.00,,OVC060,0.03,VWS V14.01,2013-05-29 00:06:00,
2013-05-28 19:11:00,82.3,67.5,29.95,SSE,161,1.5,6.0,61,0.00,,OVC060,0.03,VWS V14.01,2013-05-29 00:11:00,
2013-05-28 19:16:00,82.1,67.3,29.95,South,182,3.0,4.5,61,0.00,,OVC060,0.03,VWS V14.01,2013-05-29 00:16:00,
2013-05-28 19:21:00,81.8,66.6,29.95,SE,132,0.0,10.5,60,0.00,,OVC060,0.03,VWS V14.01,2013-05-29 00:21:00,
2013-05-28 19:26:00,81.4,66.7,29.95,SE,134,0.0,9.0,61,0.00,,OVC060,0.03,VWS V14.01,2013-05-29 00:26:00,
2013-05-28 19:31:00,80.9,65.7,29.96,SE,129,1.5,7.5,60,0.00,,OVC060,0.03,VWS V14.01,2013-05-29 00:31:00,
2013-05-28 19:36:00,80.6,65.9,29.96,SE,142,4.5,4.5,61,0.00,,OVC060,0.03,VWS V14.01,2013-05-29 00:36:00,
2013-05-28 19:41:00,80.3,65.6,29.96,South,182,9.0,9.0,61,0.00,,OVC060,0.03,VWS V14.01,2013-05-29 00:41:00,
2013-05-28 19:46:00,80.1,65.9,29.96,SSE,157,3.0,6.0,62,0.00,,OVC060,0.03,VWS V14.01,2013-05-29 00:46:00,
2013-05-28 19:51:00,79.8,65.6,29.96,South,178,3.0,10.5,62,0.00,,OVC060,0.03,VWS V14.01,2013-05-29 00:51:00,
2013-05-28 19:56:00,79.5,65.8,29.96,SE,126,1.5,7.5,63,0.00,,OVC060,0.03,VWS V14.01,2013-05-29 00:56:00,
2013-05-28 20:01:00,79.2,66.0,29.96,SSE,167,3.0,4.5,64,0.00,,FEW048,0.03,VWS V14.01,2013-05-29 01:01:00,
2013-05-28 20:06:00,78.9,65.7,29.97,SSE,160,1.5,4.5,64,0.00,,FEW048,0.03,VWS V14.01,2013-05-29 01:06:00,
2013-05-28 20:11:00,78.7,66.0,29.96,SSE,167,0.0,1.5,65,0.00,,FEW048,0.03,VWS V14.01,2013-05-29 01:11:00,
2013-05-28 20:16:00,78.4,65.7,29.96,SSE,166,0.0,3.0,65,0.00,,FEW048,0.03,VWS V14.01,2013-05-29 01:16:00,
2013-05-28 20:21:00,78.1,65.8,29.97,SSE,166,1.5,1.5,66,0.00,,FEW048,0.03,VWS V14.01,2013-05-29 01:21:00,
2013-05-28 20:26:00,77.9,65.6,29.97,SSE,157,0.0,6.0,66,0.00,,FEW048,0.03,VWS V14.01,2013-05-29 01:26:00,
2013-05-28 20:31:00,77.7,66.3,29.96,South,169,0.0,3.0,68,0.00,,FEW048,0.03,VWS V14.01,2013-05-29 01:31:00,
2013-05-28 20:36:00,77.5,66.1,29.97,SSW,194,6.0,6.0,68,0.00,,FEW048,0.03,VWS V14.01,2013-05-29 01:36:00,
2013-05-28 20:41:00,77.4,66.4,29.97,SSE,148,0.0,3.0,69,0.00,,FEW048,0.03,VWS V14.01,2013-05-29 01:41:00,
2013-05-28 20:46:00,77.3,66.3,29.97,SSE,161,0.0,4.5,69,0.00,,FEW048,0.03,VWS V14.01,2013-05-29 01:46:00,
2013-05-28 20:51:00,77.1,66.6,29.98,SE,138,1.5,7.5,70,0.00,,FEW048,0.03,VWS V14.01,2013-05-29 01:51:00,
2013-05-28 20:56:00,77.0,66.9,29.98,SSE,150,1.5,3.0,71,0.00,,FEW048,0.03,VWS V14.01,2013-05-29 01:56:00,
2013-05-28 21:01:00,76.8,66.7,29.98,SSE,150,0.0,3.0,71,0.00,,FEW046,0.03,VWS V14.01,2013-05-29 02:01:00,
2013-05-28 21:06:00,76.6,66.5,29.98,SSE,167,0.0,1.5,71,0.00,,FEW046,0.03,VWS V14.01,2013-05-29 02:06:00,
2013-05-28 21:11:00,76.4,66.7,29.98,SE,145,0.0,1.5,72,0.00,,FEW046,0.03,VWS V14.01,2013-05-29 02:11:00,
2013-05-28 21:16:00,76.1,66.8,29.98,SE,145,0.0,0.0,73,0.00,,FEW046,0.03,VWS V14.01,2013-05-29 02:16:00,
2013-05-28 21:21:00,75.8,66.9,29.98,SE,145,0.0,3.0,74,0.00,,FEW046,0.03,VWS V14.01,2013-05-29 02:21:00,
2013-05-28 21:26:00,75.5,66.6,29.98,SE,145,0.0,0.0,74,0.00,,FEW046,0.03,VWS V14.01,2013-05-29 02:26:00,
2013-05-28 21:31:00,75.2,66.7,29.99,SE,145,0.0,0.0,75,0.00,,FEW046,0.03,VWS V14.01,2013-05-29 02:31:00,
2013-05-28 21:35:00,74.9,66.8,29.99,SE,145,0.0,0.0,76,0.00,,FEW046,0.03,VWS V14.01,2013-05-29 02:35:00,
2013-05-28 21:40:00,74.4,66.7,29.99,SE,145,0.0,1.5,77,0.00,,FEW046,0.03,VWS V14.01,2013-05-29 02:40:00,
2013-05-28 21:45:00,74.0,66.7,29.98,SE,145,0.0,0.0,78,0.00,,FEW046,0.03,VWS V14.01,2013-05-29 02:45:00,
2013-05-28 21:51:00,73.7,66.8,29.98,SE,145,0.0,0.0,79,0.00,,FEW046,0.03,VWS V14.01,2013-05-29 02:51:00,
2013-05-28 21:56:00,73.5,67.0,29.98,SE,145,0.0,0.0,80,0.00,,FEW046,0.03,VWS V14.01,2013-05-29 02:56:00,
2013-05-28 22:00:00,73.3,66.8,29.99,SE,145,0.0,1.5,80,0.00,,CLR,0.03,VWS V14.01,2013-05-29 03:00:00,
2013-05-28 22:05:00,73.1,66.9,29.99,SE,145,0.0,0.0,81,0.00,,CLR,0.03,VWS V14.01,2013-05-29 03:05:00,
2013-05-28 22:10:00,73.0,66.8,29.99,SE,145,0.0,0.0,81,0.00,,CLR,0.03,VWS V14.01,2013-05-29 03:10:00,
2013-05-28 22:15:00,72.7,66.9,29.99,SE,145,0.0,0.0,82,0.00,,CLR,0.03,VWS V14.01,2013-05-29 03:15:00,
2013-05-28 22:20:00,72.4,66.9,29.99,SE,145,0.0,0.0,83,0.00,,CLR,0.03,VWS V14.01,2013-05-29 03:20:00,
2013-05-28 22:25:00,72.1,66.7,29.99,SE,145,0.0,0.0,83,0.00,,CLR,0.03,VWS V14.01,2013-05-29 03:25:00,
2013-05-28 22:30:00,71.9,66.5,29.99,SE,145,0.0,0.0,83,0.00,,CLR,0.03,VWS V14.01,2013-05-29 03:30:00,
2013-05-28 22:35:00,71.6,66.5,29.99,SE,145,0.0,0.0,84,0.00,,CLR,0.03,VWS V14.01,2013-05-29 03:35:00,
2013-05-28 22:40:00,71.2,66.5,29.99,SE,145,0.0,0.0,85,0.00,,CLR,0.03,VWS V14.01,2013-05-29 03:40:00,
2013-05-28 22:45:00,70.9,66.2,29.99,SE,145,0.0,0.0,85,0.00,,CLR,0.03,VWS V14.01,2013-05-29 03:45:00,
2013-05-28 22:50:00,70.7,66.3,29.99,SE,145,0.0,0.0,86,0.00,,CLR,0.03,VWS V14.01,2013-05-29 03:50:00,
2013-05-28 22:55:00,70.4,66.3,29.99,SE,145,0.0,0.0,87,0.00,,CLR,0.03,VWS V14.01,2013-05-29 03:55:00,
2013-05-28 23:00:00,70.2,66.2,29.99,SE,145,0.0,0.0,87,0.00,,CLR,0.03,VWS V14.01,2013-05-29 04:00:00,
2013-05-28 23:01:00,70.2,66.2,29.99,SE,145,0.0,0.0,87,0.00,,CLR,0.03,VWS V14.01,2013-05-29 04:01:00,
2013-05-28 23:06:00,70.0,66.0,29.99,SE,145,0.0,0.0,87,0.00,,CLR,0.03,VWS V14.01,2013-05-29 04:06:00,
2013-05-28 23:11:00,69.9,66.2,29.99,SE,145,0.0,0.0,88,0.00,,CLR,0.03,VWS V14.01,2013-05-29 04:11:00,
2013-05-28 23:16:00,69.8,66.1,29.99,SE,145,0.0,0.0,88,0.00,,CLR,0.03,VWS V14.01,2013-05-29 04:16:00,
2013-05-28 23:21:00,69.8,66.1,29.99,SE,145,0.0,0.0,88,0.00,,CLR,0.03,VWS V14.01,2013-05-29 04:21:00,
2013-05-28 23:26:00,69.8,66.1,29.98,SE,145,0.0,0.0,88,0.00,,CLR,0.03,VWS V14.01,2013-05-29 04:26:00,
2013-05-28 23:31:00,69.8,66.1,29.98,SE,145,0.0,1.5,88,0.00,,CLR,0.03,VWS V14.01,2013-05-29 04:31:00,
2013-05-28 23:36:00,69.9,66.2,29.98,SE,145,0.0,0.0,88,0.00,,CLR,0.03,VWS V14.01,2013-05-29 04:36:00,
2013-05-28 23:41:00,69.9,66.2,29.98,SE,145,0.0,0.0,88,0.00,,CLR,0.03,VWS V14.01,2013-05-29 04:41:00,
2013-05-28 23:46:00,69.9,66.2,29.99,SE,145,0.0,3.0,88,0.00,,CLR,0.03,VWS V14.01,2013-05-29 04:46:00,
2013-05-28 23:51:00,70.0,66.3,29.99,SE,145,1.5,3.0,88,0.00,,CLR,0.03,VWS V14.01,2013-05-29 04:51:00,
2013-05-28 23:56:00,70.2,66.5,29.98,SE,144,1.5,4.5,88,0.00,,CLR,0.03,VWS V14.01,2013-05-29 04:56:00,